CZ-6A DEB

Satellite information

Favourite Embed

Satellite Type and Status

DEBRISIN ORBIT

Key statistics

Satellite CZ-6A DEB at a glance.

Uptime

494

Days in orbit

Revolutions

≈ 14.2

Per day

Orbit

LEO

Low Earth Orbit

Inclination

89.1

Latest

Satellite identification and parameters

Extended collection of information and parameters for CZ-6A DEB.

Object identification

Identified? True

Debris? True

Object name: CZ-6A DEB

International designator: 2024-140VY

Object number (NORAD): 61359

Object ID (CCSDS): 61359

Country: PEOPLES REPUBLIC OF CHINA (PRC)

Current information (Y/N): Y

RCS size: SMALL

Orbital parameters

Period: 101.196 minutes

Inclination: 89.0556 deg

SMA: 7193.439 km

Apoapsis: 850.638 km

Periapsis: 779.971 km

RAAN: 298.7313 deg

Eccentricy: 0.0049119

Argument of periapsis: 78.5026 deg

Mean anomaly: 282.1676 deg

Mean motion: 14.22977095 rev/day

Mean motion (dot): 0.00005842 rev/day2

B* drag term: 0.0025573 1/REarth

Two-line elements (TLE)

Creation date: Dec. 12, 2025, 7:26 a.m.

Reference frame: TEME

Reference center: EARTH

Epoch: Dec. 11, 2025, 9:33 p.m. UTC

TLE line 0: 0 CZ-6A DEB

TLE line 1: 1 61359U 24140VY 25345.89821353 .00005842 00000-0 25573-2 0 9996

TLE line 2: 2 61359 89.0556 298.7313 0049119 78.5026 282.1676 14.22977095 65946

Live tracking on map

Real-time ground track for satellite CZ-6A DEB.

In-orbit conjunctions

A list of the most updated potential collisions computed for object CZ-6A DEB.

Target Orbit TCA Probability of collision Miss distance Type
CZ-6A DEB LEO 2025-10-19 11:05:58 0.0002035209 159.0 (m) DEBRIS
NOAA 11 SSO 2025-06-25 11:54:36 0.00100638 222.0 (m) PAYLOAD
NOAA 16 DEB SSO 2025-02-16 01:32:41 0.0002678071 884.0 (m) DEBRIS
CZ-6A DEB SSO 2025-01-08 02:21:15 0.0001326849 859.0 (m) DEBRIS
CZ-6A DEB LEO 2024-12-24 15:05:51 0.0005003374 406.0 (m) DEBRIS

Associated space launch

18 Low Earth Orbit communication satellites with Ku, Q and V band payloads for the G60 constellation operated by Shanghai Spacecom Satellite Technology (SSST) with funding backed by the Shanghai local government. Initial constellation will consist of 1296 satellites by 2027 with long term plans to expand it to 12000 satellites.

CZ-6A DEB was lifted into orbit during the mission ‘Long March 6A | G60 Polar Group 01’, on board a Long March 6A space rocket.

The launch took place on Aug. 6, 2024, 6:42 a.m. from Launch Complex 9A.

For more information about the launch, click the button.

Launch to space Long March 6A | G60 Polar Group 01
Long March 6A | G60 Polar Group 01

Agency: N/A

Status: Launch Successful

Launch date: Aug. 6, 2024, 6:42 a.m. UTC

Rocket: Long March 6A

Launch pad: Launch Complex 9A

Location: Taiyuan Satellite Launch Center, People's Republic of China

...

Latest news about this satellite

News about space launch
Brightness of first Chinese broadband constellation satellites alarms astronomers

The first satellites of a Chinese broadband constellation are significantly brighter than those of Western systems, posing a new challenge for astronomers.

News about space launch
Chinese rocket stage breaks up into cloud of more than 700 pieces of space debris

HELSINKI — A Chinese Long March 6A rocket’s upper stage has fragmented into a cloud of over 700 pieces of space debris, adding to concerns about long-term orbital safety. China […]

News about space launch
China's Thousand Sails Megaconstellation Kicks Off with Dangerous Debris Field

China's Thousand Sails Megaconstellation Kicks Off with Dangerous Debris Field


Newsletter sign-up

Weekly statistics, charts and insights to help you stay on top of the space industry.